Wetterdaten: Montag, 20.07.2009
Datum Zeit Temp. Innen Temp. Aussen UV X Diff Temp. Feuchte Inne Feuchte Auss Sonnenschein Luftdruck Regen ab 0,1 Wind Sonnenschein Windben
20.07.2009 00:00 21,8 C 16,6 C 0,0 UV-I 0,0 C 56 % 75 % 0 % 1015,3 hPa 0,0 l/m 1,9 km/h (1 Bft) 0 min 5,1 km/h (1 Bft)
20.07.2009 00:05 21,7 C 16,5 C 0,0 UV-I 0,0 C 56 % 75 % 0 % 1015,3 hPa 0,0 l/m 2,4 km/h (1 Bft) 0 min 5,8 km/h (2 Bft)
20.07.2009 00:10 21,7 C 16,4 C 0,0 UV-I 0,0 C 56 % 75 % 0 % 1015,3 hPa 0,0 l/m 1,9 km/h (1 Bft) 0 min 3,1 km/h (1 Bft)
20.07.2009 00:20 21,7 C 16,3 C 0,0 UV-I 0,0 C 56 % 76 % 0 % 1015,0 hPa 0,0 l/m 0,5 km/h (0 Bft) 0 min 5,8 km/h (2 Bft)
20.07.2009 00:25 21,7 C 16,3 C 0,0 UV-I 0,0 C 56 % 76 % 0 % 1015,0 hPa 0,0 l/m 1,0 km/h (0 Bft) 0 min 2,9 km/h (1 Bft)
20.07.2009 00:30 21,7 C 16,1 C 0,0 UV-I 0,0 C 56 % 77 % 0 % 1015,0 hPa 0,0 l/m 1,0 km/h (0 Bft) 0 min 0,0 km/h (0 Bft)
20.07.2009 00:35 21,6 C 16,0 C 0,0 UV-I 0,0 C 56 % 77 % 0 % 1015,0 hPa 0,0 l/m 0,7 km/h (0 Bft) 0 min 3,1 km/h (1 Bft)
20.07.2009 00:40 21,6 C 16,1 C 0,0 UV-I 0,0 C 56 % 77 % 0 % 1014,9 hPa 0,0 l/m 1,0 km/h (0 Bft) 0 min 0,0 km/h (0 Bft)
20.07.2009 00:45 21,6 C 15,9 C 0,0 UV-I 0,0 C 56 % 77 % 0 % 1014,9 hPa 0,0 l/m 2,2 km/h (1 Bft) 0 min 3,4 km/h (1 Bft)
20.07.2009 00:50 21,6 C 15,9 C 0,0 UV-I 0,0 C 56 % 78 % 0 % 1014,9 hPa 0,0 l/m 1,9 km/h (1 Bft) 0 min 3,6 km/h (1 Bft)
20.07.2009 00:55 21,6 C 15,9 C 0,0 UV-I 0,0 C 56 % 78 % 0 % 1014,9 hPa 0,0 l/m 1,7 km/h (1 Bft) 0 min 2,9 km/h (1 Bft)
20.07.2009 01:00 21,6 C 15,9 C 0,0 UV-I 0,0 C 57 % 78 % 0 % 1015,1 hPa 0,0 l/m 1,4 km/h (1 Bft) 0 min 5,3 km/h (1 Bft)
20.07.2009 01:05 21,6 C 15,8 C 0,0 UV-I 0,0 C 57 % 79 % 0 % 1015,1 hPa 0,0 l/m 1,7 km/h (1 Bft) 0 min 7,7 km/h (2 Bft)
20.07.2009 01:10 21,6 C 15,9 C 0,0 UV-I 0,0 C 57 % 78 % 0 % 1015,1 hPa 0,0 l/m 2,2 km/h (1 Bft) 0 min 6,0 km/h (2 Bft)
20.07.2009 01:15 21,5 C 15,9 C 0,0 UV-I 0,0 C 57 % 78 % 0 % 1015,1 hPa 0,0 l/m 1,7 km/h (1 Bft) 0 min 0,0 km/h (0 Bft)
20.07.2009 01:20 21,5 C 15,7 C 0,0 UV-I 0,0 C 57 % 78 % 0 % 1014,6 hPa 0,0 l/m 1,0 km/h (0 Bft) 0 min 0,0 km/h (0 Bft)
20.07.2009 01:25 21,5 C 15,6 C 0,0 UV-I 0,0 C 57 % 78 % 0 % 1014,6 hPa 0,0 l/m 0,5 km/h (0 Bft) 0 min 0,0 km/h (0 Bft)
20.07.2009 01:30 21,5 C 15,6 C 0,0 UV-I 0,0 C 57 % 78 % 0 % 1014,6 hPa 0,0 l/m 1,0 km/h (0 Bft) 0 min 2,9 km/h (1 Bft)
20.07.2009 01:35 21,5 C 15,6 C 0,0 UV-I 0,0 C 57 % 77 % 0 % 1014,6 hPa 0,0 l/m 1,7 km/h (1 Bft) 0 min 2,4 km/h (1 Bft)
20.07.2009 01:40 21,5 C 15,6 C 0,0 UV-I 0,0 C 56 % 77 % 0 % 1014,4 hPa 0,0 l/m 2,4 km/h (1 Bft) 0 min 7,9 km/h (2 Bft)
20.07.2009 01:45 21,4 C 15,6 C 0,0 UV-I 0,0 C 56 % 77 % 0 % 1014,4 hPa 0,0 l/m 2,4 km/h (1 Bft) 0 min 12,5 km/h (3 Bft)
20.07.2009 01:50 21,4 C 15,6 C 0,0 UV-I 0,0 C 56 % 77 % 0 % 1014,4 hPa 0,0 l/m 2,9 km/h (1 Bft) 0 min 4,3 km/h (1 Bft)
20.07.2009 01:55 21,4 C 15,6 C 0,0 UV-I 0,0 C 56 % 76 % 0 % 1014,4 hPa 0,0 l/m 2,9 km/h (1 Bft) 0 min 4,6 km/h (1 Bft)
20.07.2009 02:00 21,4 C 15,7 C 0,0 UV-I 0,0 C 56 % 76 % 0 % 1014,6 hPa 0,0 l/m 3,4 km/h (1 Bft) 0 min 4,3 km/h (1 Bft)
20.07.2009 02:05 21,2 C 15,8 C 0,0 UV-I 0,0 C 56 % 76 % 0 % 1014,6 hPa 0,0 l/m 3,1 km/h (1 Bft) 0 min 3,1 km/h (1 Bft)
20.07.2009 02:10 21,2 C 15,8 C 0,0 UV-I 0,0 C 55 % 76 % 0 % 1014,6 hPa 0,0 l/m 3,4 km/h (1 Bft) 0 min 5,8 km/h (2 Bft)
20.07.2009 02:15 21,2 C 16,0 C 0,0 UV-I 0,0 C 55 % 75 % 0 % 1014,6 hPa 0,0 l/m 5,1 km/h (1 Bft) 0 min 6,0 km/h (2 Bft)
20.07.2009 02:20 21,3 C 16,1 C 0,0 UV-I 0,0 C 55 % 74 % 0 % 1014,6 hPa 0,0 l/m 7,2 km/h (2 Bft) 0 min 12,0 km/h (2 Bft)
20.07.2009 02:25 21,2 C 16,3 C 0,0 UV-I 0,0 C 55 % 75 % 0 % 1014,6 hPa 0,0 l/m 6,0 km/h (2 Bft) 0 min 16,8 km/h (3 Bft)
20.07.2009 02:30 21,2 C 16,2 C 0,0 UV-I 0,0 C 55 % 75 % 0 % 1014,6 hPa 0,0 l/m 4,3 km/h (1 Bft) 0 min 11,8 km/h (2 Bft)
20.07.2009 02:35 21,2 C 16,3 C 0,0 UV-I 0,0 C 56 % 75 % 0 % 1014,6 hPa 0,0 l/m 5,1 km/h (1 Bft) 0 min 18,5 km/h (3 Bft)
20.07.2009 02:40 21,2 C 16,3 C 0,0 UV-I 0,0 C 56 % 77 % 0 % 1014,8 hPa 0,0 l/m 5,8 km/h (2 Bft) 0 min 10,1 km/h (2 Bft)
20.07.2009 02:45 21,2 C 16,3 C 0,0 UV-I 0,0 C 56 % 77 % 0 % 1014,8 hPa 0,0 l/m 7,7 km/h (2 Bft) 0 min 26,5 km/h (4 Bft)
20.07.2009 02:50 21,2 C 16,3 C 0,0 UV-I 0,0 C 56 % 77 % 0 % 1014,8 hPa 0,0 l/m 7,7 km/h (2 Bft) 0 min 6,3 km/h (2 Bft)
20.07.2009 02:55 21,2 C 16,1 C 0,0 UV-I 0,0 C 56 % 77 % 0 % 1014,8 hPa 0,0 l/m 6,3 km/h (2 Bft) 0 min 7,5 km/h (2 Bft)
20.07.2009 03:00 21,1 C 16,0 C 0,0 UV-I 0,0 C 57 % 77 % 0 % 1015,1 hPa 0,0 l/m 5,1 km/h (1 Bft) 0 min 6,3 km/h (2 Bft)
20.07.2009 03:05 21,1 C 16,0 C 0,0 UV-I 0,0 C 57 % 77 % 0 % 1015,1 hPa 0,0 l/m 4,1 km/h (1 Bft) 0 min 6,0 km/h (2 Bft)
20.07.2009 03:10 21,1 C 15,9 C 0,0 UV-I 0,0 C 57 % 76 % 0 % 1015,1 hPa 0,0 l/m 4,1 km/h (1 Bft) 0 min 4,8 km/h (1 Bft)
20.07.2009 03:15 21,1 C 15,9 C 0,0 UV-I 0,0 C 57 % 77 % 0 % 1015,1 hPa 0,0 l/m 3,1 km/h (1 Bft) 0 min 4,3 km/h (1 Bft)
20.07.2009 03:20 21,1 C 15,7 C 0,0 UV-I 0,0 C 57 % 77 % 0 % 1014,9 hPa 0,0 l/m 2,4 km/h (1 Bft) 0 min 0,0 km/h (0 Bft)
20.07.2009 03:25 21,1 C 15,7 C 0,0 UV-I 0,0 C 57 % 77 % 0 % 1014,9 hPa 0,0 l/m 1,4 km/h (1 Bft) 0 min 0,0 km/h (0 Bft)
20.07.2009 03:30 21,1 C 15,5 C 0,0 UV-I 0,0 C 57 % 78 % 0 % 1014,9 hPa 0,0 l/m 1,0 km/h (0 Bft) 0 min 0,0 km/h (0 Bft)
20.07.2009 03:35 21,1 C 15,5 C 0,0 UV-I 0,0 C 57 % 78 % 0 % 1014,9 hPa 0,0 l/m 1,7 km/h (1 Bft) 0 min 6,0 km/h (2 Bft)
20.07.2009 03:40 21,1 C 15,5 C 0,0 UV-I 0,0 C 57 % 78 % 0 % 1014,7 hPa 0,0 l/m 1,7 km/h (1 Bft) 0 min 0,0 km/h (0 Bft)
20.07.2009 03:45 21,0 C 15,4 C 0,0 UV-I 0,0 C 57 % 79 % 0 % 1014,7 hPa 0,0 l/m 1,7 km/h (1 Bft) 0 min 0,0 km/h (0 Bft)
20.07.2009 03:50 21,0 C 15,3 C 0,0 UV-I 0,0 C 57 % 79 % 0 % 1014,7 hPa 0,0 l/m 1,2 km/h (1 Bft) 0 min 3,6 km/h (1 Bft)
20.07.2009 03:55 21,0 C 15,3 C 0,0 UV-I 0,0 C 57 % 79 % 0 % 1014,7 hPa 0,0 l/m 0,7 km/h (0 Bft) 0 min 0,0 km/h (0 Bft)
20.07.2009 04:00 21,0 C 15,3 C 0,0 UV-I 0,0 C 57 % 80 % 0 % 1014,4 hPa 0,0 l/m 1,4 km/h (1 Bft) 0 min 3,8 km/h (1 Bft)
20.07.2009 04:05 21,0 C 15,2 C 0,0 UV-I 0,0 C 57 % 80 % 0 % 1014,4 hPa 0,0 l/m 1,7 km/h (1 Bft) 0 min 0,0 km/h (0 Bft)
20.07.2009 04:10 21,0 C 15,3 C 0,0 UV-I 0,0 C 57 % 80 % 0 % 1014,4 hPa 0,0 l/m 1,7 km/h (1 Bft) 0 min 4,3 km/h (1 Bft)
20.07.2009 04:15 20,9 C 15,3 C 0,0 UV-I 0,0 C 57 % 80 % 0 % 1014,4 hPa 0,0 l/m 2,6 km/h (1 Bft) 0 min 3,6 km/h (1 Bft)
20.07.2009 04:20 20,9 C 15,3 C 0,0 UV-I 0,0 C 57 % 80 % 0 % 1014,3 hPa 0,0 l/m 3,4 km/h (1 Bft) 0 min 5,8 km/h (2 Bft)
20.07.2009 04:25 20,9 C 15,3 C 0,0 UV-I 0,0 C 57 % 80 % 0 % 1014,3 hPa 0,0 l/m 3,1 km/h (1 Bft) 0 min 0,0 km/h (0 Bft)
20.07.2009 04:30 20,8 C 15,3 C 0,0 UV-I 0,0 C 57 % 80 % 0 % 1014,3 hPa 0,0 l/m 4,1 km/h (1 Bft) 0 min 13,0 km/h (3 Bft)
20.07.2009 04:35 20,8 C 15,3 C 0,0 UV-I 0,0 C 57 % 80 % 0 % 1014,3 hPa 0,0 l/m 3,1 km/h (1 Bft) 0 min 5,8 km/h (2 Bft)
20.07.2009 04:40 20,8 C 15,2 C 0,0 UV-I 0,0 C 57 % 81 % 0 % 1014,4 hPa 0,0 l/m 2,9 km/h (1 Bft) 0 min 2,9 km/h (1 Bft)
20.07.2009 04:45 20,8 C 15,2 C 0,0 UV-I 0,0 C 57 % 81 % 0 % 1014,4 hPa 0,0 l/m 3,1 km/h (1 Bft) 0 min 8,7 km/h (2 Bft)
20.07.2009 04:50 20,8 C 15,2 C 0,0 UV-I 0,0 C 57 % 81 % 0 % 1014,4 hPa 0,0 l/m 1,9 km/h (1 Bft) 0 min 6,0 km/h (2 Bft)
20.07.2009 04:55 20,8 C 15,3 C 0,0 UV-I 0,0 C 57 % 81 % 0 % 1014,4 hPa 0,0 l/m 2,9 km/h (1 Bft) 0 min 5,1 km/h (1 Bft)
20.07.2009 05:00 20,8 C 15,3 C 0,0 UV-I 0,0 C 57 % 81 % 0 % 1014,4 hPa 0,0 l/m 3,1 km/h (1 Bft) 0 min 0,0 km/h (0 Bft)
20.07.2009 05:05 20,7 C 15,3 C 0,0 UV-I 0,0 C 58 % 81 % 0 % 1014,4 hPa 0,0 l/m 2,9 km/h (1 Bft) 0 min 0,0 km/h (0 Bft)
20.07.2009 05:10 20,7 C 15,2 C 0,0 UV-I 0,0 C 58 % 81 % 0 % 1014,4 hPa 0,0 l/m 2,9 km/h (1 Bft) 0 min 5,8 km/h (2 Bft)
20.07.2009 05:14 20,7 C 15,3 C 0,0 UV-I 0,0 C 58 % 81 % 0 % 1014,4 hPa 0,0 l/m 3,4 km/h (1 Bft) 0 min 4,1 km/h (1 Bft)
20.07.2009 05:15 20,7 C 15,3 C 0,0 UV-I 0,0 C 58 % 81 % 0 % 1014,4 hPa 0,0 l/m 3,4 km/h (1 Bft) 0 min 4,1 km/h (1 Bft)
20.07.2009 05:20 20,7 C 15,2 C 0,0 UV-I 0,0 C 58 % 80 % 0 % 1014,4 hPa 0,0 l/m 2,6 km/h (1 Bft) 0 min 2,6 km/h (1 Bft)
20.07.2009 05:25 20,6 C 15,2 C 0,0 UV-I 0,0 C 58 % 80 % 0 % 1014,4 hPa 0,0 l/m 2,2 km/h (1 Bft) 0 min 2,6 km/h (1 Bft)
20.07.2009 05:30 20,6 C 15,2 C 0,0 UV-I 0,0 C 58 % 80 % 0 % 1014,4 hPa 0,0 l/m 3,4 km/h (1 Bft) 0 min 7,2 km/h (2 Bft)
20.07.2009 05:35 20,6 C 15,2 C 0,0 UV-I 0,0 C 58 % 80 % 0 % 1014,4 hPa 0,0 l/m 3,6 km/h (1 Bft) 0 min 6,3 km/h (2 Bft)
20.07.2009 05:40 20,6 C 15,2 C 0,0 UV-I 0,0 C 58 % 80 % 0 % 1014,3 hPa 0,0 l/m 3,8 km/h (1 Bft) 0 min 5,8 km/h (2 Bft)
20.07.2009 05:45 20,6 C 15,3 C 0,0 UV-I 0,0 C 58 % 80 % 0 % 1014,3 hPa 0,0 l/m 3,1 km/h (1 Bft) 0 min 0,0 km/h (0 Bft)
20.07.2009 05:50 20,6 C 15,2 C 0,0 UV-I 0,0 C 58 % 80 % 0 % 1014,3 hPa 0,0 l/m 3,6 km/h (1 Bft) 0 min 9,6 km/h (2 Bft)
20.07.2009 05:55 20,5 C 15,3 C 0,0 UV-I 0,0 C 58 % 80 % 0 % 1014,3 hPa 0,0 l/m 4,1 km/h (1 Bft) 0 min 7,2 km/h (2 Bft)
20.07.2009 06:00 20,5 C 15,3 C 0,0 UV-I 0,0 C 58 % 80 % 0 % 1014,4 hPa 0,0 l/m 3,8 km/h (1 Bft) 0 min 4,6 km/h (1 Bft)
20.07.2009 06:05 20,5 C 15,3 C 0,0 UV-I 0,0 C 58 % 80 % 0 % 1014,4 hPa 0,0 l/m 3,1 km/h (1 Bft) 0 min 3,8 km/h (1 Bft)
20.07.2009 06:10 20,5 C 15,3 C 0,0 UV-I 0,0 C 58 % 80 % 0 % 1014,4 hPa 0,0 l/m 2,6 km/h (1 Bft) 0 min 2,9 km/h (1 Bft)
20.07.2009 06:15 20,5 C 15,3 C 0,0 UV-I 0,0 C 58 % 80 % 0 % 1014,4 hPa 0,0 l/m 2,2 km/h (1 Bft) 0 min 5,3 km/h (1 Bft)
20.07.2009 06:20 20,5 C 15,3 C 0,0 UV-I 0,0 C 58 % 80 % 0 % 1014,2 hPa 0,0 l/m 2,9 km/h (1 Bft) 0 min 4,8 km/h (1 Bft)
20.07.2009 06:25 20,5 C 15,4 C 0,0 UV-I 0,0 C 58 % 80 % 0 % 1014,2 hPa 0,0 l/m 3,1 km/h (1 Bft) 0 min 7,2 km/h (2 Bft)
20.07.2009 06:30 20,5 C 15,5 C 0,0 UV-I 0,0 C 58 % 80 % 0 % 1014,2 hPa 0,0 l/m 1,7 km/h (1 Bft) 0 min 0,0 km/h (0 Bft)
20.07.2009 06:35 20,5 C 15,5 C 0,1 UV-I 0,0 C 58 % 80 % 0 % 1014,2 hPa 0,0 l/m 1,7 km/h (1 Bft) 0 min 0,0 km/h (0 Bft)
20.07.2009 06:40 20,5 C 15,5 C 0,1 UV-I 0,0 C 58 % 79 % 0 % 1014,4 hPa 0,0 l/m 2,6 km/h (1 Bft) 0 min 5,1 km/h (1 Bft)
20.07.2009 06:45 20,5 C 15,6 C 0,1 UV-I 0,0 C 58 % 79 % 0 % 1014,4 hPa 0,0 l/m 4,3 km/h (1 Bft) 0 min 8,7 km/h (2 Bft)
20.07.2009 06:50 20,5 C 15,7 C 0,3 UV-I 0,0 C 58 % 79 % 0 % 1014,4 hPa 0,0 l/m 4,6 km/h (1 Bft) 0 min 4,1 km/h (1 Bft)
20.07.2009 06:55 20,5 C 15,6 C 0,4 UV-I 0,0 C 58 % 80 % 0 % 1014,4 hPa 0,0 l/m 3,1 km/h (1 Bft) 0 min 6,7 km/h (2 Bft)
20.07.2009 07:00 20,5 C 15,6 C 0,4 UV-I 0,0 C 58 % 80 % 0 % 1014,6 hPa 0,0 l/m 2,6 km/h (1 Bft) 0 min 2,4 km/h (1 Bft)
20.07.2009 07:05 20,5 C 15,6 C 0,6 UV-I 0,0 C 58 % 80 % 0 % 1014,6 hPa 0,0 l/m 2,2 km/h (1 Bft) 0 min 4,8 km/h (1 Bft)
20.07.2009 07:10 20,4 C 15,7 C 0,6 UV-I 0,0 C 58 % 80 % 0 % 1014,6 hPa 0,0 l/m 2,2 km/h (1 Bft) 0 min 2,6 km/h (1 Bft)
20.07.2009 07:15 20,5 C 15,6 C 0,7 UV-I 0,0 C 58 % 80 % 0 % 1014,6 hPa 0,0 l/m 3,6 km/h (1 Bft) 0 min 8,2 km/h (2 Bft)
20.07.2009 07:20 20,5 C 15,6 C 0,7 UV-I 0,0 C 58 % 80 % 0 % 1014,6 hPa 0,0 l/m 4,1 km/h (1 Bft) 0 min 6,5 km/h (2 Bft)
20.07.2009 07:25 20,4 C 15,7 C 0,8 UV-I 0,0 C 59 % 80 % 0 % 1014,6 hPa 0,0 l/m 3,8 km/h (1 Bft) 0 min 4,8 km/h (1 Bft)
20.07.2009 07:30 20,4 C 15,7 C 0,9 UV-I 0,0 C 59 % 80 % 0 % 1014,6 hPa 0,0 l/m 3,4 km/h (1 Bft) 0 min 4,6 km/h (1 Bft)
20.07.2009 07:35 20,4 C 15,9 C 0,9 UV-I 0,0 C 59 % 80 % 0 % 1014,6 hPa 0,0 l/m 4,6 km/h (1 Bft) 0 min 12,8 km/h (3 Bft)
20.07.2009 07:40 20,5 C 15,9 C 0,9 UV-I 0,0 C 59 % 80 % 0 % 1014,6 hPa 0,0 l/m 4,3 km/h (1 Bft) 0 min 6,3 km/h (2 Bft)
20.07.2009 07:45 20,5 C 15,9 C 0,7 UV-I 0,1 C 59 % 79 % 3 % 1014,6 hPa 0,0 l/m 5,3 km/h (1 Bft) 0 min 12,3 km/h (3 Bft)
20.07.2009 07:50 20,5 C 16,0 C 0,7 UV-I 0,1 C 59 % 79 % 3 % 1014,6 hPa 0,0 l/m 6,5 km/h (2 Bft) 0 min 12,0 km/h (2 Bft)
20.07.2009 07:55 20,5 C 16,0 C 0,6 UV-I 0,2 C 59 % 79 % 6 % 1014,6 hPa 0,0 l/m 5,8 km/h (2 Bft) 0 min 8,9 km/h (2 Bft)
20.07.2009 08:00 20,5 C 16,0 C 0,6 UV-I 0,3 C 59 % 80 % 9 % 1014,9 hPa 0,0 l/m 5,8 km/h (2 Bft) 0 min 6,0 km/h (2 Bft)
20.07.2009 08:05 20,5 C 16,0 C 0,8 UV-I 0,4 C 59 % 79 % 11 % 1014,9 hPa 0,0 l/m 6,5 km/h (2 Bft) 0 min 11,8 km/h (2 Bft)
20.07.2009 08:10 20,5 C 16,1 C 0,7 UV-I 0,3 C 59 % 79 % 9 % 1014,9 hPa 0,0 l/m 5,5 km/h (1 Bft) 0 min 0,0 km/h (0 Bft)
20.07.2009 08:15 20,5 C 16,1 C 0,5 UV-I 0,3 C 59 % 79 % 9 % 1014,9 hPa 0,0 l/m 4,3 km/h (1 Bft) 0 min 8,9 km/h (2 Bft)
20.07.2009 08:20 20,5 C 16,3 C 0,4 UV-I 0,1 C 59 % 78 % 3 % 1014,9 hPa 0,0 l/m 4,3 km/h (1 Bft) 0 min 9,6 km/h (2 Bft)
20.07.2009 08:25 20,5 C 16,3 C 0,5 UV-I 0,1 C 59 % 78 % 3 % 1014,9 hPa 0,0 l/m 5,5 km/h (1 Bft) 0 min 5,5 km/h (1 Bft)
20.07.2009 08:30 20,5 C 16,2 C 0,4 UV-I 0,2 C 58 % 78 % 6 % 1014,9 hPa 0,0 l/m 5,5 km/h (1 Bft) 0 min 8,9 km/h (2 Bft)
20.07.2009 08:35 20,5 C 16,3 C 0,7 UV-I 0,1 C 58 % 77 % 3 % 1014,9 hPa 0,0 l/m 6,0 km/h (2 Bft) 0 min 5,1 km/h (1 Bft)
20.07.2009 08:40 20,5 C 16,3 C 0,6 UV-I 0,1 C 58 % 77 % 3 % 1015,4 hPa 0,0 l/m 6,0 km/h (2 Bft) 0 min 11,3 km/h (2 Bft)
20.07.2009 08:45 20,6 C 16,4 C 0,6 UV-I 0,1 C 58 % 77 % 3 % 1015,4 hPa 0,0 l/m 6,5 km/h (2 Bft) 0 min 9,9 km/h (2 Bft)
20.07.2009 08:50 20,6 C 16,4 C 0,5 UV-I 0,1 C 58 % 77 % 3 % 1015,4 hPa 0,0 l/m 6,5 km/h (2 Bft) 0 min 10,3 km/h (2 Bft)
20.07.2009 08:55 20,6 C 16,4 C 0,8 UV-I 0,0 C 58 % 77 % 0 % 1015,4 hPa 0,0 l/m 6,7 km/h (2 Bft) 0 min 13,5 km/h (3 Bft)
20.07.2009 09:00 20,6 C 16,5 C 1,2 UV-I 0,0 C 58 % 77 % 0 % 1015,4 hPa 0,0 l/m 7,2 km/h (2 Bft) 0 min 8,2 km/h (2 Bft)
20.07.2009 09:05 20,6 C 16,5 C 1,2 UV-I 0,3 C 58 % 77 % 9 % 1015,4 hPa 0,0 l/m 6,0 km/h (2 Bft) 0 min 6,3 km/h (2 Bft)
20.07.2009 09:10 20,6 C 16,5 C 1,5 UV-I 0,5 C 58 % 76 % 14 % 1015,4 hPa 0,0 l/m 5,3 km/h (1 Bft) 0 min 2,4 km/h (1 Bft)
20.07.2009 09:15 20,6 C 16,6 C 1,8 UV-I 0,6 C 58 % 76 % 17 % 1015,4 hPa 0,0 l/m 6,3 km/h (2 Bft) 0 min 8,2 km/h (2 Bft)
20.07.2009 09:20 20,6 C 16,7 C 1,7 UV-I 0,7 C 58 % 76 % 20 % 1015,6 hPa 0,0 l/m 5,8 km/h (2 Bft) 0 min 10,3 km/h (2 Bft)
20.07.2009 09:25 20,7 C 16,9 C 2,0 UV-I 0,8 C 58 % 75 % 23 % 1015,6 hPa 0,0 l/m 4,8 km/h (1 Bft) 0 min 6,3 km/h (2 Bft)
20.07.2009 09:30 20,7 C 16,9 C 2,0 UV-I 0,8 C 58 % 75 % 23 % 1015,6 hPa 0,0 l/m 5,5 km/h (1 Bft) 0 min 4,6 km/h (1 Bft)
20.07.2009 09:35 20,7 C 17,1 C 2,1 UV-I 0,8 C 58 % 75 % 23 % 1015,6 hPa 0,0 l/m 6,0 km/h (2 Bft) 0 min 5,3 km/h (1 Bft)
20.07.2009 09:40 20,7 C 17,1 C 2,7 UV-I 0,9 C 58 % 75 % 26 % 1015,5 hPa 0,0 l/m 6,0 km/h (2 Bft) 0 min 6,7 km/h (2 Bft)
20.07.2009 09:45 20,8 C 17,1 C 2,1 UV-I 0,8 C 58 % 75 % 23 % 1015,5 hPa 0,0 l/m 6,0 km/h (2 Bft) 0 min 5,1 km/h (1 Bft)
20.07.2009 09:50 20,8 C 17,1 C 1,9 UV-I 0,8 C 58 % 75 % 23 % 1015,5 hPa 0,0 l/m 6,5 km/h (2 Bft) 0 min 4,8 km/h (1 Bft)
20.07.2009 09:55 20,8 C 17,3 C 2,0 UV-I 0,8 C 58 % 76 % 23 % 1015,5 hPa 0,0 l/m 5,5 km/h (1 Bft) 0 min 7,5 km/h (2 Bft)
20.07.2009 10:00 20,8 C 17,2 C 2,9 UV-I 1,4 C 58 % 75 % 40 % 1015,3 hPa 0,0 l/m 5,5 km/h (1 Bft) 0 min 5,1 km/h (1 Bft)
20.07.2009 10:05 20,8 C 17,5 C 2,9 UV-I 1,5 C 58 % 75 % 43 % 1015,3 hPa 0,0 l/m 7,0 km/h (2 Bft) 0 min 2,6 km/h (1 Bft)
20.07.2009 10:15 20,9 C 17,5 C 2,0 UV-I 1,2 C 58 % 73 % 34 % 1015,3 hPa 0,0 l/m 5,5 km/h (1 Bft) 0 min 15,4 km/h (3 Bft)
20.07.2009 10:20 20,9 C 17,5 C 1,7 UV-I 1,0 C 58 % 73 % 29 % 1015,6 hPa 0,0 l/m 6,3 km/h (2 Bft) 0 min 8,2 km/h (2 Bft)
20.07.2009 10:25 21,0 C 17,6 C 1,6 UV-I 0,8 C 58 % 73 % 23 % 1015,6 hPa 0,0 l/m 5,8 km/h (2 Bft) 0 min 11,5 km/h (2 Bft)
20.07.2009 10:35 21,0 C 17,7 C 2,3 UV-I 0,9 C 58 % 72 % 26 % 1015,6 hPa 0,0 l/m 6,3 km/h (2 Bft) 0 min 6,5 km/h (2 Bft)
20.07.2009 10:40 21,0 C 17,9 C 4,1 UV-I 1,2 C 58 % 73 % 34 % 1016,1 hPa 0,0 l/m 4,1 km/h (1 Bft) 0 min 8,9 km/h (2 Bft)
20.07.2009 10:45 21,0 C 18,0 C 4,8 UV-I 2,0 C 58 % 73 % 57 % 1016,1 hPa 0,0 l/m 4,6 km/h (1 Bft) 0 min 2,4 km/h (1 Bft)
20.07.2009 10:50 21,1 C 18,1 C 4,0 UV-I 2,0 C 58 % 72 % 57 % 1016,1 hPa 0,0 l/m 5,3 km/h (1 Bft) 0 min 5,5 km/h (1 Bft)
20.07.2009 10:55 21,1 C 18,3 C 3,7 UV-I 1,7 C 58 % 72 % 49 % 1016,1 hPa 0,0 l/m 5,1 km/h (1 Bft) 0 min 4,8 km/h (1 Bft)
20.07.2009 11:00 21,2 C 18,3 C 2,1 UV-I 1,5 C 58 % 72 % 43 % 1015,9 hPa 0,0 l/m 3,6 km/h (1 Bft) 0 min 4,6 km/h (1 Bft)
20.07.2009 11:05 21,2 C 18,3 C 1,4 UV-I 1,2 C 58 % 70 % 34 % 1015,9 hPa 0,0 l/m 4,3 km/h (1 Bft) 0 min 7,7 km/h (2 Bft)
20.07.2009 11:10 21,2 C 18,4 C 5,9 UV-I 1,7 C 58 % 70 % 49 % 1015,9 hPa 0,0 l/m 6,0 km/h (2 Bft) 0 min 4,6 km/h (1 Bft)
20.07.2009 11:15 21,2 C 18,5 C 3,5 UV-I 1,7 C 57 % 67 % 49 % 1015,9 hPa 0,0 l/m 7,5 km/h (2 Bft) 0 min 11,3 km/h (2 Bft)
20.07.2009 11:20 21,2 C 18,6 C 4,8 UV-I 2,0 C 57 % 68 % 57 % 1015,8 hPa 0,0 l/m 7,2 km/h (2 Bft) 0 min 8,7 km/h (2 Bft)
20.07.2009 11:25 21,3 C 18,7 C 3,2 UV-I 1,7 C 57 % 67 % 49 % 1015,8 hPa 0,0 l/m 5,8 km/h (2 Bft) 0 min 5,3 km/h (1 Bft)
20.07.2009 11:30 21,2 C 18,6 C 2,9 UV-I 1,5 C 57 % 67 % 43 % 1015,8 hPa 0,0 l/m 6,3 km/h (2 Bft) 0 min 13,0 km/h (3 Bft)
20.07.2009 11:35 21,2 C 18,8 C 5,5 UV-I 2,2 C 57 % 66 % 63 % 1015,8 hPa 0,0 l/m 7,0 km/h (2 Bft) 0 min 3,4 km/h (1 Bft)
20.07.2009 11:40 21,2 C 18,9 C 3,7 UV-I 1,7 C 56 % 65 % 49 % 1016,3 hPa 0,0 l/m 6,7 km/h (2 Bft) 0 min 7,9 km/h (2 Bft)
20.07.2009 11:45 21,2 C 18,9 C 1,3 UV-I 1,4 C 56 % 66 % 40 % 1016,3 hPa 0,0 l/m 5,8 km/h (2 Bft) 0 min 6,5 km/h (2 Bft)
20.07.2009 11:50 21,2 C 19,2 C 9,1 UV-I 2,9 C 56 % 65 % 83 % 1016,3 hPa 0,0 l/m 6,5 km/h (2 Bft) 2 min 7,5 km/h (2 Bft)
20.07.2009 11:55 21,4 C 19,5 C 4,1 UV-I 2,5 C 56 % 65 % 71 % 1016,3 hPa 0,0 l/m 6,7 km/h (2 Bft) 0 min 6,3 km/h (2 Bft)
20.07.2009 12:00 21,4 C 19,4 C 4,3 UV-I 2,4 C 56 % 63 % 69 % 1016,2 hPa 0,0 l/m 7,0 km/h (2 Bft) 0 min 7,5 km/h (2 Bft)
20.07.2009 12:05 21,4 C 19,5 C 3,9 UV-I 1,9 C 56 % 63 % 54 % 1016,2 hPa 0,0 l/m 7,2 km/h (2 Bft) 0 min 17,8 km/h (3 Bft)
20.07.2009 12:10 21,4 C 19,6 C 3,9 UV-I 2,1 C 56 % 63 % 60 % 1016,2 hPa 0,0 l/m 7,0 km/h (2 Bft) 0 min 7,5 km/h (2 Bft)
20.07.2009 12:15 21,5 C 19,7 C 4,0 UV-I 1,9 C 56 % 63 % 54 % 1016,2 hPa 0,0 l/m 7,0 km/h (2 Bft) 0 min 7,9 km/h (2 Bft)
20.07.2009 12:20 21,5 C 19,8 C 4,0 UV-I 2,2 C 56 % 64 % 63 % 1016,6 hPa 0,0 l/m 6,7 km/h (2 Bft) 0 min 6,5 km/h (2 Bft)
20.07.2009 12:25 21,5 C 20,0 C 5,9 UV-I 2,8 C 56 % 65 % 80 % 1016,6 hPa 0,0 l/m 6,0 km/h (2 Bft) 0 min 6,3 km/h (2 Bft)
20.07.2009 12:30 21,6 C 20,0 C 5,4 UV-I 2,8 C 56 % 62 % 80 % 1016,6 hPa 0,0 l/m 6,3 km/h (2 Bft) 0 min 17,3 km/h (3 Bft)
20.07.2009 12:35 21,6 C 19,9 C 2,4 UV-I 1,5 C 55 % 62 % 43 % 1016,6 hPa 0,0 l/m 7,2 km/h (2 Bft) 0 min 8,7 km/h (2 Bft)
20.07.2009 12:40 21,6 C 19,8 C 2,0 UV-I 0,9 C 55 % 62 % 26 % 1016,5 hPa 0,0 l/m 7,7 km/h (2 Bft) 0 min 7,7 km/h (2 Bft)
20.07.2009 12:45 21,6 C 19,9 C 2,8 UV-I 0,7 C 55 % 62 % 20 % 1016,5 hPa 0,0 l/m 6,7 km/h (2 Bft) 0 min 6,7 km/h (2 Bft)
20.07.2009 12:50 21,6 C 19,9 C 5,1 UV-I 1,5 C 55 % 62 % 43 % 1016,5 hPa 0,0 l/m 6,7 km/h (2 Bft) 0 min 14,9 km/h (3 Bft)
20.07.2009 12:55 21,7 C 20,4 C 7,6 UV-I 3,4 C 55 % 61 % 97 % 1016,5 hPa 0,0 l/m 7,2 km/h (2 Bft) 2 min 18,3 km/h (3 Bft)
20.07.2009 13:00 21,7 C 20,4 C 5,6 UV-I 2,9 C 55 % 60 % 83 % 1016,7 hPa 0,0 l/m 7,7 km/h (2 Bft) 2 min 11,3 km/h (2 Bft)
20.07.2009 13:05 21,7 C 20,5 C 5,6 UV-I 2,8 C 55 % 63 % 80 % 1016,7 hPa 0,0 l/m 8,7 km/h (2 Bft) 0 min 8,2 km/h (2 Bft)
20.07.2009 13:10 21,7 C 20,6 C 7,5 UV-I 3,5 C 55 % 63 % 100 % 1016,7 hPa 0,0 l/m 7,5 km/h (2 Bft) 2 min 7,7 km/h (2 Bft)
20.07.2009 13:20 21,8 C 21,2 C 7,9 UV-I 4,8 C 55 % 58 % 100 % 1016,6 hPa 0,0 l/m 6,7 km/h (2 Bft) 2 min 11,3 km/h (2 Bft)
20.07.2009 13:25 21,8 C 21,5 C 6,9 UV-I 4,5 C 55 % 57 % 100 % 1016,6 hPa 0,0 l/m 6,7 km/h (2 Bft) 2 min 13,0 km/h (3 Bft)
20.07.2009 13:30 21,8 C 21,7 C 7,9 UV-I 4,3 C 54 % 55 % 100 % 1016,6 hPa 0,0 l/m 7,7 km/h (2 Bft) 2 min 11,8 km/h (2 Bft)
20.07.2009 13:35 21,9 C 21,7 C 6,0 UV-I 2,9 C 54 % 54 % 83 % 1016,6 hPa 0,0 l/m 8,9 km/h (2 Bft) 2 min 19,2 km/h (3 Bft)
20.07.2009 13:40 21,9 C 21,6 C 4,6 UV-I 2,1 C 54 % 54 % 60 % 1016,7 hPa 0,0 l/m 8,4 km/h (2 Bft) 0 min 8,7 km/h (2 Bft)
20.07.2009 13:45 22,0 C 21,5 C 3,3 UV-I 1,1 C 53 % 53 % 31 % 1016,7 hPa 0,0 l/m 7,7 km/h (2 Bft) 0 min 6,3 km/h (2 Bft)
20.07.2009 13:50 22,0 C 21,3 C 2,8 UV-I 0,8 C 53 % 54 % 23 % 1016,7 hPa 0,0 l/m 6,3 km/h (2 Bft) 0 min 4,6 km/h (1 Bft)
20.07.2009 13:55 22,0 C 21,2 C 3,1 UV-I 0,7 C 53 % 54 % 20 % 1016,7 hPa 0,0 l/m 5,8 km/h (2 Bft) 0 min 5,3 km/h (1 Bft)
20.07.2009 14:00 22,0 C 21,3 C 6,4 UV-I 1,8 C 53 % 53 % 51 % 1017,0 hPa 0,0 l/m 7,2 km/h (2 Bft) 0 min 4,8 km/h (1 Bft)
20.07.2009 14:05 22,1 C 21,7 C 7,2 UV-I 3,1 C 53 % 54 % 89 % 1017,0 hPa 0,0 l/m 7,7 km/h (2 Bft) 2 min 11,1 km/h (2 Bft)
20.07.2009 14:10 22,2 C 21,9 C 7,4 UV-I 3,7 C 53 % 54 % 100 % 1017,0 hPa 0,0 l/m 6,3 km/h (2 Bft) 2 min 5,8 km/h (2 Bft)
20.07.2009 14:15 22,2 C 22,3 C 6,2 UV-I 3,7 C 53 % 53 % 100 % 1017,0 hPa 0,0 l/m 7,0 km/h (2 Bft) 2 min 11,3 km/h (2 Bft)
20.07.2009 14:25 22,4 C 22,7 C 7,5 UV-I 4,0 C 52 % 53 % 100 % 1016,9 hPa 0,0 l/m 7,0 km/h (2 Bft) 2 min 7,9 km/h (2 Bft)
20.07.2009 14:30 22,5 C 22,7 C 7,2 UV-I 4,2 C 52 % 51 % 100 % 1016,9 hPa 0,0 l/m 7,2 km/h (2 Bft) 2 min 21,7 km/h (4 Bft)
20.07.2009 14:35 22,6 C 22,8 C 7,1 UV-I 3,7 C 52 % 50 % 100 % 1016,9 hPa 0,0 l/m 7,7 km/h (2 Bft) 2 min 9,6 km/h (2 Bft)
20.07.2009 14:40 22,7 C 22,9 C 6,1 UV-I 3,5 C 52 % 50 % 100 % 1017,4 hPa 0,0 l/m 7,7 km/h (2 Bft) 2 min 4,3 km/h (1 Bft)
20.07.2009 14:45 22,8 C 23,2 C 6,2 UV-I 3,5 C 51 % 51 % 100 % 1017,4 hPa 0,0 l/m 6,3 km/h (2 Bft) 2 min 14,2 km/h (3 Bft)
20.07.2009 14:50 22,9 C 23,1 C 5,6 UV-I 2,9 C 51 % 50 % 83 % 1017,4 hPa 0,0 l/m 5,1 km/h (1 Bft) 2 min 6,5 km/h (2 Bft)
20.07.2009 14:55 23,0 C 23,1 C 5,5 UV-I 2,2 C 51 % 50 % 63 % 1017,4 hPa 0,0 l/m 6,0 km/h (2 Bft) 0 min 6,7 km/h (2 Bft)
20.07.2009 15:00 23,0 C 23,0 C 4,5 UV-I 1,7 C 51 % 50 % 49 % 1017,6 hPa 0,0 l/m 6,0 km/h (2 Bft) 0 min 8,7 km/h (2 Bft)
20.07.2009 15:05 23,1 C 22,8 C 4,3 UV-I 1,2 C 50 % 49 % 34 % 1017,6 hPa 0,0 l/m 6,5 km/h (2 Bft) 0 min 15,2 km/h (3 Bft)
20.07.2009 15:10 23,2 C 22,8 C 4,7 UV-I 1,2 C 50 % 50 % 34 % 1017,6 hPa 0,0 l/m 6,7 km/h (2 Bft) 0 min 4,3 km/h (1 Bft)
20.07.2009 15:15 23,2 C 23,1 C 5,8 UV-I 2,1 C 50 % 48 % 60 % 1017,6 hPa 0,0 l/m 7,7 km/h (2 Bft) 0 min 15,9 km/h (3 Bft)
20.07.2009 15:20 23,3 C 23,2 C 6,7 UV-I 3,0 C 50 % 49 % 86 % 1017,3 hPa 0,0 l/m 6,5 km/h (2 Bft) 2 min 6,7 km/h (2 Bft)
20.07.2009 15:25 23,4 C 23,6 C 7,0 UV-I 4,2 C 50 % 49 % 100 % 1017,3 hPa 0,0 l/m 5,8 km/h (2 Bft) 2 min 5,3 km/h (1 Bft)
20.07.2009 15:30 23,4 C 23,5 C 6,0 UV-I 4,1 C 50 % 47 % 100 % 1017,3 hPa 0,0 l/m 6,3 km/h (2 Bft) 2 min 6,5 km/h (2 Bft)
20.07.2009 15:35 23,5 C 23,5 C 5,1 UV-I 2,7 C 49 % 48 % 77 % 1017,3 hPa 0,0 l/m 6,7 km/h (2 Bft) 0 min 3,6 km/h (1 Bft)
20.07.2009 15:40 23,6 C 23,5 C 6,1 UV-I 3,0 C 49 % 49 % 86 % 1017,3 hPa 0,0 l/m 6,7 km/h (2 Bft) 2 min 7,5 km/h (2 Bft)
20.07.2009 15:45 23,7 C 23,7 C 6,2 UV-I 2,8 C 49 % 48 % 80 % 1017,3 hPa 0,0 l/m 7,5 km/h (2 Bft) 0 min 18,0 km/h (3 Bft)
20.07.2009 15:50 23,8 C 23,5 C 6,0 UV-I 2,8 C 49 % 48 % 80 % 1017,3 hPa 0,0 l/m 8,7 km/h (2 Bft) 0 min 14,4 km/h (3 Bft)
20.07.2009 15:55 23,9 C 23,5 C 4,1 UV-I 1,9 C 49 % 50 % 54 % 1017,3 hPa 0,0 l/m 7,7 km/h (2 Bft) 0 min 9,4 km/h (2 Bft)
20.07.2009 16:00 23,9 C 23,2 C 4,2 UV-I 1,7 C 49 % 49 % 49 % 1017,7 hPa 0,0 l/m 6,7 km/h (2 Bft) 0 min 5,5 km/h (1 Bft)
20.07.2009 16:10 24,0 C 23,2 C 4,6 UV-I 1,0 C 48 % 50 % 29 % 1017,7 hPa 0,0 l/m 6,7 km/h (2 Bft) 0 min 12,3 km/h (3 Bft)
20.07.2009 16:14 24,0 C 23,0 C 4,5 UV-I 1,6 C 48 % 50 % 46 % 1017,7 hPa 0,0 l/m 7,9 km/h (2 Bft) 0 min 13,7 km/h (3 Bft)
20.07.2009 16:15 24,0 C 23,0 C 4,5 UV-I 1,6 C 48 % 50 % 46 % 1017,7 hPa 0,0 l/m 7,9 km/h (2 Bft) 0 min 13,7 km/h (3 Bft)
20.07.2009 16:20 24,0 C 23,1 C 7,3 UV-I 2,7 C 48 % 51 % 77 % 1017,4 hPa 0,0 l/m 7,9 km/h (2 Bft) 0 min 9,6 km/h (2 Bft)
20.07.2009 16:25 24,1 C 23,4 C 7,5 UV-I 3,3 C 48 % 51 % 94 % 1017,4 hPa 0,0 l/m 6,5 km/h (2 Bft) 2 min 3,1 km/h (1 Bft)
20.07.2009 16:30 24,2 C 23,5 C 7,6 UV-I 3,5 C 48 % 48 % 100 % 1017,4 hPa 0,0 l/m 6,7 km/h (2 Bft) 2 min 17,1 km/h (3 Bft)
20.07.2009 16:35 24,2 C 23,6 C 8,1 UV-I 3,4 C 48 % 49 % 97 % 1017,4 hPa 0,0 l/m 6,7 km/h (2 Bft) 2 min 5,1 km/h (1 Bft)
20.07.2009 16:40 24,3 C 23,7 C 8,4 UV-I 3,7 C 47 % 48 % 100 % 1017,3 hPa 0,0 l/m 6,5 km/h (2 Bft) 2 min 14,2 km/h (3 Bft)
20.07.2009 16:45 24,4 C 23,8 C 8,7 UV-I 3,6 C 47 % 46 % 100 % 1017,3 hPa 0,0 l/m 5,5 km/h (1 Bft) 2 min 4,6 km/h (1 Bft)
20.07.2009 16:50 24,4 C 23,8 C 7,7 UV-I 3,1 C 47 % 45 % 89 % 1017,3 hPa 0,0 l/m 6,0 km/h (2 Bft) 2 min 7,9 km/h (2 Bft)
20.07.2009 16:55 24,5 C 23,6 C 5,0 UV-I 2,0 C 47 % 46 % 57 % 1017,3 hPa 0,0 l/m 6,0 km/h (2 Bft) 0 min 12,8 km/h (3 Bft)
20.07.2009 17:00 24,6 C 23,6 C 5,2 UV-I 1,4 C 46 % 47 % 40 % 1017,4 hPa 0,0 l/m 6,0 km/h (2 Bft) 0 min 3,8 km/h (1 Bft)
20.07.2009 17:05 24,6 C 23,7 C 4,2 UV-I 2,5 C 46 % 46 % 71 % 1017,4 hPa 0,0 l/m 6,5 km/h (2 Bft) 0 min 7,0 km/h (2 Bft)
20.07.2009 17:10 24,6 C 23,7 C 3,7 UV-I 2,5 C 46 % 45 % 71 % 1017,4 hPa 0,0 l/m 6,3 km/h (2 Bft) 0 min 8,7 km/h (2 Bft)
20.07.2009 17:20 24,7 C 23,7 C 2,9 UV-I 1,2 C 46 % 45 % 34 % 1017,2 hPa 0,0 l/m 7,0 km/h (2 Bft) 0 min 7,2 km/h (2 Bft)
20.07.2009 17:25 24,8 C 23,4 C 2,8 UV-I 1,0 C 46 % 46 % 29 % 1017,2 hPa 0,0 l/m 6,3 km/h (2 Bft) 0 min 13,7 km/h (3 Bft)
20.07.2009 17:30 24,8 C 23,3 C 2,7 UV-I 0,7 C 46 % 46 % 20 % 1017,2 hPa 0,0 l/m 5,5 km/h (1 Bft) 0 min 0,0 km/h (0 Bft)
20.07.2009 17:35 24,8 C 23,3 C 2,8 UV-I 0,5 C 46 % 48 % 14 % 1017,2 hPa 0,0 l/m 4,3 km/h (1 Bft) 0 min 2,6 km/h (1 Bft)
20.07.2009 17:40 24,8 C 23,3 C 2,4 UV-I 0,3 C 46 % 48 % 9 % 1017,4 hPa 0,0 l/m 3,1 km/h (1 Bft) 0 min 6,5 km/h (2 Bft)
20.07.2009 17:50 24,8 C 23,1 C 1,5 UV-I 0,0 C 46 % 48 % 0 % 1017,4 hPa 0,0 l/m 2,9 km/h (1 Bft) 0 min 2,9 km/h (1 Bft)
20.07.2009 17:55 24,7 C 23,0 C 1,4 UV-I 0,0 C 46 % 49 % 0 % 1017,4 hPa 0,0 l/m 2,4 km/h (1 Bft) 0 min 3,6 km/h (1 Bft)
20.07.2009 18:00 24,7 C 23,0 C 2,5 UV-I 0,2 C 46 % 49 % 6 % 1017,4 hPa 0,0 l/m 3,1 km/h (1 Bft) 0 min 4,3 km/h (1 Bft)
20.07.2009 18:05 24,7 C 23,1 C 3,0 UV-I 0,9 C 46 % 49 % 26 % 1017,4 hPa 0,0 l/m 3,6 km/h (1 Bft) 0 min 0,0 km/h (0 Bft)
20.07.2009 18:14 24,6 C 22,9 C 1,7 UV-I 0,2 C 46 % 48 % 6 % 1017,4 hPa 0,0 l/m 2,4 km/h (1 Bft) 0 min 6,7 km/h (2 Bft)
20.07.2009 18:19 24,6 C 22,7 C 1,6 UV-I 0,1 C 46 % 48 % 3 % 1017,3 hPa 0,0 l/m 2,2 km/h (1 Bft) 0 min 0,0 km/h (0 Bft)
20.07.2009 18:21 24,6 C 22,7 C 1,6 UV-I 0,1 C 46 % 48 % 3 % 1017,3 hPa 0,0 l/m 2,2 km/h (1 Bft) 0 min 0,0 km/h (0 Bft)
20.07.2009 18:25 24,5 C 22,5 C 1,4 UV-I 0,0 C 46 % 48 % 0 % 1017,3 hPa 0,0 l/m 2,6 km/h (1 Bft) 0 min 4,8 km/h (1 Bft)
20.07.2009 18:30 24,5 C 22,4 C 1,7 UV-I 0,1 C 46 % 48 % 3 % 1017,3 hPa 0,0 l/m 4,1 km/h (1 Bft) 0 min 15,2 km/h (3 Bft)
20.07.2009 18:35 24,5 C 22,3 C 1,7 UV-I 0,0 C 46 % 49 % 0 % 1017,3 hPa 0,0 l/m 5,3 km/h (1 Bft) 0 min 10,1 km/h (2 Bft)
20.07.2009 18:40 24,4 C 22,2 C 1,5 UV-I 0,0 C 46 % 50 % 0 % 1017,2 hPa 0,0 l/m 4,6 km/h (1 Bft) 0 min 0,0 km/h (0 Bft)
20.07.2009 18:50 24,4 C 22,1 C 1,4 UV-I 0,0 C 46 % 50 % 0 % 1017,2 hPa 0,0 l/m 2,6 km/h (1 Bft) 0 min 5,5 km/h (1 Bft)
20.07.2009 18:55 24,3 C 22,1 C 1,5 UV-I 0,1 C 46 % 51 % 3 % 1017,2 hPa 0,0 l/m 2,4 km/h (1 Bft) 0 min 7,9 km/h (2 Bft)
20.07.2009 18:59 24,3 C 22,0 C 1,7 UV-I 0,4 C 46 % 51 % 11 % 1017,0 hPa 0,0 l/m 1,9 km/h (1 Bft) 0 min 0,0 km/h (0 Bft)
20.07.2009 19:04 24,2 C 22,1 C 1,6 UV-I 0,2 C 47 % 52 % 6 % 1017,0 hPa 0,0 l/m 2,9 km/h (1 Bft) 0 min 0,0 km/h (0 Bft)
20.07.2009 19:09 24,2 C 22,0 C 1,5 UV-I 0,1 C 47 % 52 % 3 % 1017,0 hPa 0,0 l/m 2,4 km/h (1 Bft) 0 min 0,0 km/h (0 Bft)
20.07.2009 19:11 24,2 C 22,0 C 1,5 UV-I 0,1 C 47 % 52 % 3 % 1017,0 hPa 0,0 l/m 2,4 km/h (1 Bft) 0 min 0,0 km/h (0 Bft)
20.07.2009 19:20 24,2 C 21,8 C 1,4 UV-I 0,1 C 47 % 52 % 3 % 1017,1 hPa 0,0 l/m 2,6 km/h (1 Bft) 0 min 7,9 km/h (2 Bft)
20.07.2009 19:25 24,1 C 21,9 C 1,2 UV-I 0,0 C 47 % 53 % 0 % 1017,1 hPa 0,0 l/m 2,6 km/h (1 Bft) 0 min 7,5 km/h (2 Bft)
20.07.2009 19:30 24,1 C 21,7 C 1,2 UV-I 0,0 C 47 % 53 % 0 % 1017,1 hPa 0,0 l/m 2,6 km/h (1 Bft) 0 min 5,1 km/h (1 Bft)
20.07.2009 19:35 24,0 C 21,6 C 1,0 UV-I 0,0 C 47 % 55 % 0 % 1017,1 hPa 0,0 l/m 3,4 km/h (1 Bft) 0 min 3,4 km/h (1 Bft)
20.07.2009 19:40 24,0 C 21,5 C 1,0 UV-I 0,0 C 47 % 56 % 0 % 1017,2 hPa 0,0 l/m 3,6 km/h (1 Bft) 0 min 0,0 km/h (0 Bft)
20.07.2009 19:45 24,0 C 21,5 C 1,0 UV-I 0,0 C 47 % 55 % 0 % 1017,2 hPa 0,0 l/m 2,4 km/h (1 Bft) 0 min 2,4 km/h (1 Bft)
20.07.2009 19:55 24,0 C 21,4 C 0,8 UV-I 0,0 C 48 % 55 % 0 % 1017,2 hPa 0,0 l/m 1,4 km/h (1 Bft) 0 min 3,8 km/h (1 Bft)
20.07.2009 20:00 23,9 C 21,3 C 0,8 UV-I 0,0 C 48 % 55 % 0 % 1017,1 hPa 0,0 l/m 1,9 km/h (1 Bft) 0 min 2,9 km/h (1 Bft)
20.07.2009 20:05 23,9 C 21,2 C 0,5 UV-I 0,0 C 48 % 56 % 0 % 1017,1 hPa 0,0 l/m 1,4 km/h (1 Bft) 0 min 0,0 km/h (0 Bft)
20.07.2009 20:10 23,9 C 21,2 C 0,4 UV-I 0,0 C 48 % 57 % 0 % 1017,1 hPa 0,0 l/m 0,2 km/h (0 Bft) 0 min 0,0 km/h (0 Bft)
20.07.2009 20:15 23,8 C 21,1 C 0,4 UV-I 0,0 C 48 % 56 % 0 % 1017,1 hPa 0,0 l/m 0,0 km/h (0 Bft) 0 min 0,0 km/h (0 Bft)
20.07.2009 20:20 23,8 C 21,1 C 0,4 UV-I 0,0 C 48 % 56 % 0 % 1016,9 hPa 0,0 l/m 0,0 km/h (0 Bft) 0 min 0,0 km/h (0 Bft)
20.07.2009 20:25 23,8 C 20,8 C 0,3 UV-I 0,0 C 48 % 57 % 0 % 1016,9 hPa 0,0 l/m 0,0 km/h (0 Bft) 0 min 0,0 km/h (0 Bft)
20.07.2009 20:30 23,8 C 20,9 C 0,3 UV-I 0,0 C 48 % 58 % 0 % 1016,9 hPa 0,0 l/m 0,0 km/h (0 Bft) 0 min 0,0 km/h (0 Bft)
20.07.2009 20:40 23,7 C 20,7 C 0,1 UV-I 0,0 C 49 % 58 % 0 % 1016,9 hPa 0,0 l/m 0,0 km/h (0 Bft) 0 min 0,0 km/h (0 Bft)
20.07.2009 20:45 23,7 C 20,5 C 0,1 UV-I 0,0 C 49 % 61 % 0 % 1016,9 hPa 0,0 l/m 0,0 km/h (0 Bft) 0 min 0,0 km/h (0 Bft)
20.07.2009 20:50 23,7 C 20,5 C 0,1 UV-I 0,0 C 49 % 61 % 0 % 1016,9 hPa 0,0 l/m 0,0 km/h (0 Bft) 0 min 0,0 km/h (0 Bft)
20.07.2009 20:55 23,6 C 20,3 C 0,0 UV-I 0,0 C 49 % 60 % 0 % 1016,9 hPa 0,0 l/m 0,0 km/h (0 Bft) 0 min 0,0 km/h (0 Bft)
20.07.2009 20:59 23,6 C 20,2 C 0,1 UV-I 0,0 C 49 % 60 % 0 % 1016,9 hPa 0,0 l/m 0,0 km/h (0 Bft) 0 min 0,0 km/h (0 Bft)
20.07.2009 21:04 23,6 C 20,1 C 0,0 UV-I 0,0 C 49 % 61 % 0 % 1016,9 hPa 0,0 l/m 0,0 km/h (0 Bft) 0 min 0,0 km/h (0 Bft)
20.07.2009 21:08 23,6 C 20,0 C 0,0 UV-I 0,0 C 49 % 62 % 0 % 1016,9 hPa 0,0 l/m 0,0 km/h (0 Bft) 0 min 0,0 km/h (0 Bft)
20.07.2009 21:10 23,5 C 20,1 C 0,0 UV-I 0,0 C 49 % 62 % 0 % 1016,9 hPa 0,0 l/m 0,0 km/h (0 Bft) 0 min 0,0 km/h (0 Bft)
20.07.2009 21:12 23,5 C 20,0 C 0,0 UV-I 0,0 C 49 % 62 % 0 % 1016,9 hPa 0,0 l/m 0,0 km/h (0 Bft) 0 min 0,0 km/h (0 Bft)
20.07.2009 21:14 23,5 C 19,9 C 0,0 UV-I 0,0 C 50 % 63 % 0 % 1016,9 hPa 0,0 l/m 0,0 km/h (0 Bft) 0 min 0,0 km/h (0 Bft)
20.07.2009 21:16 23,5 C 19,9 C 0,0 UV-I 0,0 C 50 % 63 % 0 % 1016,9 hPa 0,0 l/m 0,0 km/h (0 Bft) 0 min 0,0 km/h (0 Bft)
20.07.2009 21:18 23,5 C 19,9 C 0,0 UV-I 0,0 C 50 % 63 % 0 % 1017,1 hPa 0,0 l/m 0,0 km/h (0 Bft) 0 min 0,0 km/h (0 Bft)
20.07.2009 21:20 23,5 C 19,9 C 0,0 UV-I 0,0 C 50 % 64 % 0 % 1017,1 hPa 0,0 l/m 0,0 km/h (0 Bft) 0 min 0,0 km/h (0 Bft)
20.07.2009 21:22 23,5 C 19,9 C 0,0 UV-I 0,0 C 50 % 63 % 0 % 1017,1 hPa 0,0 l/m 0,0 km/h (0 Bft) 0 min 0,0 km/h (0 Bft)
20.07.2009 21:24 23,4 C 19,7 C 0,0 UV-I 0,0 C 50 % 63 % 0 % 1017,1 hPa 0,0 l/m 0,0 km/h (0 Bft) 0 min 0,0 km/h (0 Bft)
20.07.2009 21:26 23,4 C 19,6 C 0,0 UV-I 0,0 C 50 % 63 % 0 % 1017,1 hPa 0,0 l/m 0,0 km/h (0 Bft) 0 min 0,0 km/h (0 Bft)
20.07.2009 21:28 23,4 C 19,6 C 0,0 UV-I 0,0 C 50 % 63 % 0 % 1017,1 hPa 0,0 l/m 0,0 km/h (0 Bft) 0 min 0,0 km/h (0 Bft)
20.07.2009 21:30 23,4 C 19,7 C 0,0 UV-I 0,0 C 50 % 64 % 0 % 1017,1 hPa 0,0 l/m 0,0 km/h (0 Bft) 0 min 0,0 km/h (0 Bft)
20.07.2009 21:32 23,4 C 19,5 C 0,0 UV-I 0,0 C 50 % 64 % 0 % 1017,1 hPa 0,0 l/m 0,0 km/h (0 Bft) 0 min 0,0 km/h (0 Bft)
20.07.2009 21:34 23,4 C 19,5 C 0,0 UV-I 0,0 C 50 % 64 % 0 % 1017,1 hPa 0,0 l/m 0,0 km/h (0 Bft) 0 min 0,0 km/h (0 Bft)
20.07.2009 21:36 23,4 C 19,4 C 0,0 UV-I 0,0 C 50 % 64 % 0 % 1017,1 hPa 0,0 l/m 0,0 km/h (0 Bft) 0 min 0,0 km/h (0 Bft)
20.07.2009 21:38 23,2 C 19,5 C 0,0 UV-I 0,0 C 50 % 65 % 0 % 1017,0 hPa 0,0 l/m 0,0 km/h (0 Bft) 0 min 0,0 km/h (0 Bft)
20.07.2009 21:40 23,4 C 19,3 C 0,0 UV-I 0,0 C 51 % 65 % 0 % 1017,0 hPa 0,0 l/m 0,0 km/h (0 Bft) 0 min 0,0 km/h (0 Bft)
20.07.2009 21:42 23,2 C 19,3 C 0,0 UV-I 0,0 C 51 % 66 % 0 % 1017,0 hPa 0,0 l/m 0,0 km/h (0 Bft) 0 min 0,0 km/h (0 Bft)
20.07.2009 21:44 23,3 C 19,3 C 0,0 UV-I 0,0 C 51 % 66 % 0 % 1017,0 hPa 0,0 l/m 0,0 km/h (0 Bft) 0 min 0,0 km/h (0 Bft)
20.07.2009 21:46 23,2 C 19,3 C 0,0 UV-I 0,0 C 51 % 66 % 0 % 1017,0 hPa 0,0 l/m 0,0 km/h (0 Bft) 0 min 0,0 km/h (0 Bft)
20.07.2009 21:48 23,2 C 19,2 C 0,0 UV-I 0,0 C 51 % 66 % 0 % 1017,0 hPa 0,0 l/m 0,0 km/h (0 Bft) 0 min 0,0 km/h (0 Bft)
20.07.2009 21:50 23,2 C 19,1 C 0,0 UV-I 0,0 C 51 % 68 % 0 % 1017,0 hPa 0,0 l/m 0,0 km/h (0 Bft) 0 min 0,0 km/h (0 Bft)
20.07.2009 21:52 23,2 C 19,1 C 0,0 UV-I 0,0 C 51 % 68 % 0 % 1017,0 hPa 0,0 l/m 0,0 km/h (0 Bft) 0 min 0,0 km/h (0 Bft)
20.07.2009 21:54 23,2 C 19,0 C 0,0 UV-I 0,0 C 51 % 68 % 0 % 1017,0 hPa 0,0 l/m 0,0 km/h (0 Bft) 0 min 0,0 km/h (0 Bft)
20.07.2009 21:56 23,2 C 19,0 C 0,0 UV-I 0,0 C 51 % 68 % 0 % 1017,0 hPa 0,0 l/m 0,0 km/h (0 Bft) 0 min 0,0 km/h (0 Bft)
20.07.2009 21:58 23,2 C 19,0 C 0,0 UV-I 0,0 C 51 % 69 % 0 % 1016,9 hPa 0,0 l/m 0,0 km/h (0 Bft) 0 min 0,0 km/h (0 Bft)
20.07.2009 22:00 23,2 C 18,9 C 0,0 UV-I 0,0 C 51 % 69 % 0 % 1016,9 hPa 0,0 l/m 0,0 km/h (0 Bft) 0 min 0,0 km/h (0 Bft)
20.07.2009 22:02 23,2 C 18,9 C 0,0 UV-I 0,0 C 51 % 69 % 0 % 1016,9 hPa 0,0 l/m 0,0 km/h (0 Bft) 0 min 0,0 km/h (0 Bft)
20.07.2009 22:04 23,2 C 18,9 C 0,0 UV-I 0,0 C 51 % 69 % 0 % 1016,9 hPa 0,0 l/m 0,0 km/h (0 Bft) 0 min 0,0 km/h (0 Bft)
20.07.2009 22:06 23,2 C 18,8 C 0,0 UV-I 0,0 C 51 % 69 % 0 % 1016,9 hPa 0,0 l/m 0,0 km/h (0 Bft) 0 min 0,0 km/h (0 Bft)
20.07.2009 22:08 23,1 C 18,8 C 0,0 UV-I 0,0 C 52 % 69 % 0 % 1016,9 hPa 0,0 l/m 0,0 km/h (0 Bft) 0 min 0,0 km/h (0 Bft)
20.07.2009 22:10 23,1 C 18,8 C 0,0 UV-I 0,0 C 52 % 69 % 0 % 1016,9 hPa 0,0 l/m 0,0 km/h (0 Bft) 0 min 0,0 km/h (0 Bft)
20.07.2009 22:12 23,1 C 18,7 C 0,0 UV-I 0,0 C 52 % 69 % 0 % 1016,9 hPa 0,0 l/m 0,0 km/h (0 Bft) 0 min 0,0 km/h (0 Bft)
20.07.2009 22:14 23,1 C 18,7 C 0,0 UV-I 0,0 C 52 % 69 % 0 % 1016,9 hPa 0,0 l/m 0,0 km/h (0 Bft) 0 min 0,0 km/h (0 Bft)
20.07.2009 22:16 23,1 C 18,7 C 0,0 UV-I 0,0 C 52 % 69 % 0 % 1016,9 hPa 0,0 l/m 0,0 km/h (0 Bft) 0 min 0,0 km/h (0 Bft)
20.07.2009 22:18 23,0 C 18,7 C 0,0 UV-I 0,0 C 52 % 69 % 0 % 1016,9 hPa 0,0 l/m 0,0 km/h (0 Bft) 0 min 0,0 km/h (0 Bft)
20.07.2009 22:20 23,0 C 18,7 C 0,0 UV-I 0,0 C 52 % 69 % 0 % 1016,9 hPa 0,0 l/m 0,0 km/h (0 Bft) 0 min 0,0 km/h (0 Bft)
20.07.2009 22:22 23,0 C 18,5 C 0,0 UV-I 0,0 C 52 % 69 % 0 % 1016,9 hPa 0,0 l/m 0,0 km/h (0 Bft) 0 min 0,0 km/h (0 Bft)
20.07.2009 22:24 23,0 C 18,5 C 0,0 UV-I 0,0 C 52 % 69 % 0 % 1016,9 hPa 0,0 l/m 0,0 km/h (0 Bft) 0 min 0,0 km/h (0 Bft)
20.07.2009 22:26 23,0 C 18,5 C 0,0 UV-I 0,0 C 52 % 69 % 0 % 1016,9 hPa 0,0 l/m 0,0 km/h (0 Bft) 0 min 0,0 km/h (0 Bft)
20.07.2009 22:28 23,0 C 18,4 C 0,0 UV-I 0,0 C 52 % 69 % 0 % 1016,9 hPa 0,0 l/m 0,0 km/h (0 Bft) 0 min 0,0 km/h (0 Bft)
20.07.2009 22:30 23,0 C 18,5 C 0,0 UV-I 0,0 C 52 % 69 % 0 % 1016,9 hPa 0,0 l/m 0,0 km/h (0 Bft) 0 min 0,0 km/h (0 Bft)
20.07.2009 22:32 23,0 C 18,4 C 0,0 UV-I 0,0 C 52 % 69 % 0 % 1016,9 hPa 0,0 l/m 0,0 km/h (0 Bft) 0 min 0,0 km/h (0 Bft)
20.07.2009 22:34 23,0 C 18,4 C 0,0 UV-I 0,0 C 53 % 69 % 0 % 1016,9 hPa 0,0 l/m 0,0 km/h (0 Bft) 0 min 0,0 km/h (0 Bft)
20.07.2009 22:36 22,9 C 18,3 C 0,0 UV-I 0,0 C 53 % 70 % 0 % 1016,9 hPa 0,0 l/m 0,0 km/h (0 Bft) 0 min 0,0 km/h (0 Bft)
20.07.2009 22:38 22,9 C 18,3 C 0,0 UV-I 0,0 C 53 % 70 % 0 % 1016,8 hPa 0,0 l/m 0,0 km/h (0 Bft) 0 min 0,0 km/h (0 Bft)
20.07.2009 22:40 22,9 C 18,3 C 0,0 UV-I 0,0 C 53 % 70 % 0 % 1016,8 hPa 0,0 l/m 0,0 km/h (0 Bft) 0 min 0,0 km/h (0 Bft)
20.07.2009 22:42 22,9 C 18,3 C 0,0 UV-I 0,0 C 53 % 70 % 0 % 1016,8 hPa 0,0 l/m 0,0 km/h (0 Bft) 0 min 0,0 km/h (0 Bft)
20.07.2009 22:44 22,9 C 18,3 C 0,0 UV-I 0,0 C 53 % 70 % 0 % 1016,8 hPa 0,0 l/m 0,0 km/h (0 Bft) 0 min 0,0 km/h (0 Bft)
20.07.2009 22:46 22,9 C 18,2 C 0,0 UV-I 0,0 C 53 % 70 % 0 % 1016,8 hPa 0,0 l/m 0,0 km/h (0 Bft) 0 min 0,0 km/h (0 Bft)
20.07.2009 22:48 22,9 C 18,1 C 0,0 UV-I 0,0 C 53 % 70 % 0 % 1016,8 hPa 0,0 l/m 0,0 km/h (0 Bft) 0 min 0,0 km/h (0 Bft)
20.07.2009 22:50 22,9 C 18,1 C 0,0 UV-I 0,0 C 53 % 70 % 0 % 1016,8 hPa 0,0 l/m 0,0 km/h (0 Bft) 0 min 0,0 km/h (0 Bft)
20.07.2009 22:52 22,9 C 18,0 C 0,0 UV-I 0,0 C 53 % 70 % 0 % 1016,8 hPa 0,0 l/m 0,0 km/h (0 Bft) 0 min 0,0 km/h (0 Bft)
20.07.2009 22:54 22,9 C 18,0 C 0,0 UV-I 0,0 C 53 % 71 % 0 % 1016,8 hPa 0,0 l/m 0,0 km/h (0 Bft) 0 min 0,0 km/h (0 Bft)
20.07.2009 22:56 22,8 C 18,1 C 0,0 UV-I 0,0 C 53 % 71 % 0 % 1016,8 hPa 0,0 l/m 0,0 km/h (0 Bft) 0 min 0,0 km/h (0 Bft)
20.07.2009 22:58 22,8 C 18,0 C 0,0 UV-I 0,0 C 53 % 71 % 0 % 1016,7 hPa 0,0 l/m 0,0 km/h (0 Bft) 0 min 0,0 km/h (0 Bft)
20.07.2009 23:00 22,8 C 17,9 C 0,0 UV-I 0,0 C 53 % 71 % 0 % 1016,7 hPa 0,0 l/m 0,0 km/h (0 Bft) 0 min 0,0 km/h (0 Bft)
20.07.2009 23:02 22,8 C 17,9 C 0,0 UV-I 0,0 C 53 % 71 % 0 % 1016,7 hPa 0,0 l/m 0,0 km/h (0 Bft) 0 min 0,0 km/h (0 Bft)
20.07.2009 23:04 22,8 C 17,9 C 0,0 UV-I 0,0 C 53 % 71 % 0 % 1016,7 hPa 0,0 l/m 0,0 km/h (0 Bft) 0 min 0,0 km/h (0 Bft)
20.07.2009 23:06 22,8 C 17,8 C 0,0 UV-I 0,0 C 53 % 72 % 0 % 1016,7 hPa 0,0 l/m 0,0 km/h (0 Bft) 0 min 0,0 km/h (0 Bft)
20.07.2009 23:08 22,8 C 17,9 C 0,0 UV-I 0,0 C 53 % 72 % 0 % 1016,7 hPa 0,0 l/m 0,0 km/h (0 Bft) 0 min 0,0 km/h (0 Bft)
20.07.2009 23:10 22,8 C 17,8 C 0,0 UV-I 0,0 C 53 % 72 % 0 % 1016,7 hPa 0,0 l/m 0,0 km/h (0 Bft) 0 min 0,0 km/h (0 Bft)
20.07.2009 23:12 22,8 C 17,7 C 0,0 UV-I 0,0 C 53 % 72 % 0 % 1016,7 hPa 0,0 l/m 0,0 km/h (0 Bft) 0 min 0,0 km/h (0 Bft)
20.07.2009 23:14 22,8 C 17,7 C 0,0 UV-I 0,0 C 53 % 73 % 0 % 1016,7 hPa 0,0 l/m 0,0 km/h (0 Bft) 0 min 0,0 km/h (0 Bft)
20.07.2009 23:16 22,8 C 17,7 C 0,0 UV-I 0,0 C 53 % 73 % 0 % 1016,7 hPa 0,0 l/m 0,0 km/h (0 Bft) 0 min 0,0 km/h (0 Bft)
20.07.2009 23:18 22,8 C 17,6 C 0,0 UV-I 0,0 C 54 % 73 % 0 % 1016,8 hPa 0,0 l/m 0,0 km/h (0 Bft) 0 min 0,0 km/h (0 Bft)
20.07.2009 23:20 22,7 C 17,6 C 0,0 UV-I 0,0 C 54 % 73 % 0 % 1016,8 hPa 0,0 l/m 0,0 km/h (0 Bft) 0 min 0,0 km/h (0 Bft)
20.07.2009 23:22 22,7 C 17,7 C 0,0 UV-I 0,0 C 54 % 73 % 0 % 1016,8 hPa 0,0 l/m 0,0 km/h (0 Bft) 0 min 0,0 km/h (0 Bft)
20.07.2009 23:24 22,7 C 17,6 C 0,0 UV-I 0,0 C 54 % 73 % 0 % 1016,8 hPa 0,0 l/m 0,0 km/h (0 Bft) 0 min 0,0 km/h (0 Bft)
20.07.2009 23:26 22,7 C 17,6 C 0,0 UV-I 0,0 C 54 % 73 % 0 % 1016,8 hPa 0,0 l/m 0,0 km/h (0 Bft) 0 min 0,0 km/h (0 Bft)
20.07.2009 23:28 22,7 C 17,5 C 0,0 UV-I 0,0 C 54 % 73 % 0 % 1016,8 hPa 0,0 l/m 0,0 km/h (0 Bft) 0 min 0,0 km/h (0 Bft)
20.07.2009 23:30 22,7 C 17,5 C 0,0 UV-I 0,0 C 54 % 73 % 0 % 1016,8 hPa 0,0 l/m 0,0 km/h (0 Bft) 0 min 0,0 km/h (0 Bft)
20.07.2009 23:32 22,7 C 17,5 C 0,0 UV-I 0,0 C 54 % 73 % 0 % 1016,8 hPa 0,0 l/m 0,0 km/h (0 Bft) 0 min 0,0 km/h (0 Bft)
20.07.2009 23:36 22,7 C 17,5 C 0,0 UV-I 0,0 C 54 % 73 % 0 % 1016,8 hPa 0,0 l/m 0,0 km/h (0 Bft) 0 min 0,0 km/h (0 Bft)
20.07.2009 23:38 22,7 C 17,5 C 0,0 UV-I 0,0 C 54 % 73 % 0 % 1017,0 hPa 0,0 l/m 0,0 km/h (0 Bft) 0 min 0,0 km/h (0 Bft)
20.07.2009 23:40 22,7 C 17,4 C 0,0 UV-I 0,0 C 54 % 74 % 0 % 1017,0 hPa 0,0 l/m 0,0 km/h (0 Bft) 0 min 0,0 km/h (0 Bft)
20.07.2009 23:42 22,6 C 17,4 C 0,0 UV-I 0,0 C 54 % 74 % 0 % 1017,0 hPa 0,0 l/m 0,0 km/h (0 Bft) 0 min 0,0 km/h (0 Bft)
20.07.2009 23:44 22,6 C 17,3 C 0,0 UV-I 0,0 C 54 % 74 % 0 % 1017,0 hPa 0,0 l/m 0,0 km/h (0 Bft) 0 min 0,0 km/h (0 Bft)
20.07.2009 23:46 22,6 C 17,3 C 0,0 UV-I 0,0 C 54 % 74 % 0 % 1017,0 hPa 0,0 l/m 0,0 km/h (0 Bft) 0 min 0,0 km/h (0 Bft)
20.07.2009 23:48 22,6 C 17,3 C 0,0 UV-I 0,0 C 54 % 74 % 0 % 1017,0 hPa 0,0 l/m 0,0 km/h (0 Bft) 0 min 0,0 km/h (0 Bft)
20.07.2009 23:50 22,6 C 17,3 C 0,0 UV-I 0,0 C 54 % 74 % 0 % 1017,0 hPa 0,0 l/m 0,0 km/h (0 Bft) 0 min 0,0 km/h (0 Bft)
20.07.2009 23:52 22,6 C 17,2 C 0,0 UV-I 0,0 C 54 % 74 % 0 % 1017,0 hPa 0,0 l/m 0,0 km/h (0 Bft) 0 min 0,0 km/h (0 Bft)
20.07.2009 23:54 22,6 C 17,2 C 0,0 UV-I 0,0 C 54 % 74 % 0 % 1017,0 hPa 0,0 l/m 0,0 km/h (0 Bft) 0 min 0,0 km/h (0 Bft)
20.07.2009 23:56 22,6 C 17,2 C 0,0 UV-I 0,0 C 54 % 74 % 0 % 1017,0 hPa 0,0 l/m 0,0 km/h (0 Bft) 0 min 0,0 km/h (0 Bft)
20.07.2009 23:58 22,6 C 17,2 C 0,0 UV-I 0,0 C 54 % 74 % 0 % 1016,8 hPa 0,0 l/m 0,0 km/h (0 Bft) 0 min 0,0 km/h (0 Bft)
_ Min-Zeit 07:10 04:05 00:00 00:00 17:00 16:50 00:00 06:20 - 20:15 - 00:30
Minimum _ 20,4 C 15,2 C 0,0 UV-I 0,0 C 46 % 45 % 0 % 1014,2 hPa - 0,0 km/h (0 Bft) - 0,0 km/h (0 Bft)
_ Max-Zeit 17:25 16:45 11:50 13:20 07:25 04:40 13:10 16:00 00:00 13:35 11:50 02:45
Maximum _ 24,8 C 23,8 C 9,1 UV-I 4,8 C 59 % 81 % 100 % 1017,7 hPa 0,0 l/m 8,9 km/h
O-NO (2 Bft)
2 min 26,5 km/h
W-SW (4 Bft)
Durchschnitt _ 22,1 C 18,7 C 1,9 UV-I 0,8 C 54 % 67 % 21 % 1016,0 hPa #0,0 l/m 3,9 km/h (1 Bft) #54 min. 5,6 km/h (1 Bft)
© 2012 W. Hausmann